YOKOTA_(JASDF/USAF) current weather conditions

sailwx.info

Wind from 010 at 6 knots

Air temperature 2.0° C
Visibility: greater than 8.7 NM
Dewpoint -7.0° C

Last reported at 2017-Jan-20 01:58 UTC.
Time now 2017-Jan-20 03:50 UTC

Location: N 35°45' E 139°21'.
View on Google Maps.

See reports from other nearby stations

  
Tides and Currents Weather Stations Pressure Air Temp Water Temp Dewpoint Dewpoint Depression Visibility Wind Speed Wind Dir Waves Ship Positions
date/time (UTC)wind fromknots sea level pressurealtimeterstation pressurevisibilityair tempwater tempwave heightnotes
2017-Jan-20 01:58 010 6 8.7 2.0
2017-Jan-20 01:26 020 6 8.7 2.0
2017-Jan-20 00:58 010 4 8.7 3.0
2017-Jan-19 23:58 010 4 8.7 2.0
2017-Jan-19 22:59 8.7 2.0
2017-Jan-19 22:58 8.7 2.0
2017-Jan-19 22:04 8.7 1.0
2017-Jan-19 22:03 8.7 1.0
2017-Jan-19 21:58 8.7 1.0 Light snow.
2017-Jan-19 21:53 8.7 1.0 Light snow.
2017-Jan-19 21:52 8.7 1.0 Precipitation.
2017-Jan-19 20:58 330 2 8.7 1.0
2017-Jan-19 19:58 350 7 8.7 1.0
2017-Jan-19 18:58 350 6 8.7-0.0
2017-Jan-19 17:58 360 2 8.7-0.0
2017-Jan-19 16:58 330 2 8.7 1.0
2017-Jan-19 15:58 300 2 8.7-0.0
2017-Jan-19 14:58 8.7 1.0
2017-Jan-19 13:58 8.7 1.0
2017-Jan-19 12:58 020 4 8.7 1.0
2017-Jan-19 11:58 030 13 8.7 3.0
2017-Jan-19 10:58 020 13 8.7 4.0
2017-Jan-19 09:58 010 17 gusting 20 8.7 5.0
2017-Jan-19 08:58 020 13 8.7 5.0
2017-Jan-19 07:58 030 9 8.7 6.0
2017-Jan-19 06:58 030 12 8.7 9.0
2017-Jan-19 05:58 040 9 8.710.0
2017-Jan-19 04:58 030 11 8.711.0
2017-Jan-19 03:58 040 13 8.711.0
2017-Jan-19 02:58 040 12 8.710.0
2017-Jan-19 01:58 030 13 8.7 9.0
2017-Jan-19 00:58 010 12 8.7 7.0
2017-Jan-18 23:58 360 6 8.7 5.0
2017-Jan-18 22:58 8.7 2.0
2017-Jan-18 21:58 290 2 8.7 2.0
2017-Jan-18 20:58 340 2 8.7 2.0
2017-Jan-18 19:58 8.7-0.0
2017-Jan-18 18:58 8.7-0.0
2017-Jan-18 17:58 8.7 1.0
2017-Jan-18 16:58 8.7 1.0
2017-Jan-18 15:58 8.7 2.0
2017-Jan-18 14:58 8.7 1.0
2017-Jan-18 13:58 8.7 2.0
2017-Jan-18 12:58 320 2 8.7 3.0
2017-Jan-18 11:58 290 2 8.7 4.0
2017-Jan-18 10:58 280 5 8.7 4.0
2017-Jan-18 09:58 250 2 8.7 5.0
2017-Jan-18 08:58 170 6 8.7 6.0
2017-Jan-18 07:58 170 6 8.7 7.0
2017-Jan-18 06:58 180 6 8.7 8.0
2017-Jan-18 05:58 150 5 8.7 9.0
2017-Jan-18 04:58 8.7 9.0
2017-Jan-18 03:58 8.7 8.0